Current Version              Previous Version:    01  02  03  04  05  06  07  08  09  10  11  12  13  14  15  16  17  18  19  20  21  22  23  24  25  26  27  28  29  30  
   31  32  33  34  35  36  37  38  39  40  41  42  43  44  45  46  47  48  49  50  51  52  53  54  55  56  57  58  59  60  

[Printable]
017
ASUS44 KFWD 011401
RWRTX
NORTH TEXAS HOURLY WEATHER ROUNDUP
NATIONAL WEATHER SERVICE FORT WORTH TX
800 AM CST SUN FEB 01 2015

NOTE: "FAIR" INDICATES FEW OR NO CLOUDS BELOW 12,000 FEET WITH NO
SIGNIFICANT WEATHER AND/OR OBSTRUCTIONS TO VISIBILITY.

TXZ118-119-011500-
DALLAS/FORT WORTH METROPLEX

CITY           SKY/WX    TMP DP  RH WIND       PRES   REMARKS
DFW AIRPORT    CLOUDY    57  56  96 W8        29.88R
DALLAS LOVE    LGT RAIN  58  57  97 W8        29.87R FOG
FTW MEACHAM    CLOUDY    56  54  93 W5        29.88R FOG
DAL-EXECUTIVE  LGT RAIN  60  57  89 W9        29.87R FOG
FTW-ALLIANCE   CLOUDY    54  54 100 W5        29.88R FOG
FTW-SPINKS     CLOUDY    57  55  94 W7        29.90R
ARLINGTON      CLOUDY    60  55  83 W8        29.88R
GRAND PRAIRIE  CLOUDY    59  59 100 W6        29.88
ADDISON        CLOUDY    57  55  94 W7        29.88R FOG
MESQUITE       LGT RAIN  59  57  94 SW5       29.86R FOG
LANCASTER      CLOUDY    60  57  91 W5        29.88R
$$

TXZ091>094-102>105-117-120-121-131>134-011500-
NORTH CENTRAL TEXAS

CITY           SKY/WX    TMP DP  RH WIND       PRES   REMARKS
SHRMAN/DENISON CLOUDY    54  54 100 W8        29.88R
BRIDGEPORT     CLOUDY    53  53 100 NW7       29.91R
DENTON         CLOUDY    54  53  97 W7        29.88R FOG
MCKINNEY       LGT RAIN  57  55  93 W9        29.87R
ROCKWALL       DRIZZLE   59  59 100 SW7       29.85R
TERRELL        LGT RAIN  61  59  93 SW8       29.85S FOG
WAXAHACHIE     CLOUDY    59  59 100 W7        29.89R FOG
$$

TXZ083>090-098>101-113>116-127>130-139>142-154-155-011500-
WESTERN NORTH TEXAS

CITY           SKY/WX    TMP DP  RH WIND       PRES   REMARKS
WICHITA FALLS  CLOUDY    47  43  86 NW20      29.93R WCI  40
WF-KICKAPOO    CLOUDY    41  39  91 NW12G20   29.95R WCI  34
ABILENE        CLOUDY    52  49  89 W8        29.95R
ABILENE-DYESS  CLOUDY    51  50  95 NW7       29.94R
MINERAL WELLS  CLOUDY    51  51 100 CALM      29.89R FOG
COMANCHE       CLOUDY    54  54 100 NW8       29.92R FOG
BROWNWOOD      FOG       50  50 100 NW6       29.93R VSB<1/4
BRADY          CLEAR     48  48 100 NW9       29.91R
$$

TXZ143>147-156>162-174-175-011500-
CENTRAL TEXAS

CITY           SKY/WX    TMP DP  RH WIND       PRES   REMARKS
WACO           MOCLDY    59  58  96 S12       29.88R
WACO-TSTC      MOCLDY    61  59  94 S10       29.88R
WACO-MCGREGOR  CLOUDY    61  55  82 S10       29.90R
CORSICANA      CLOUDY    63  59  87 SW14      29.88R
MEXIA          CLOUDY    62  60  93 SW14      29.88R
HEARNE         PTCLDY    61  60  97 S7        29.91S
TEMPLE         CLOUDY    61  55  82 S7        29.89R
KILLEEN        CLOUDY    59  58  97 S5        29.89R
KILLEEN-SKYLRK CLOUDY    61  55  82 S6        29.88S
FORT HOOD      MOCLDY    60  59  97 S2        29.89R
HAMILTON       CLEAR     55  55 100 SW10      29.90  FOG
$$

TXZ095>097-106>112-122>126-135>138-148>153-164>167-011500-
EAST TEXAS

CITY           SKY/WX    TMP DP  RH WIND       PRES   REMARKS
PARIS          CLOUDY    57  54  88 W10       29.85R
MINEOLA        CLOUDY    61  61 100 SW7       29.86R
TYLER          CLOUDY    61  58  90 SW9       29.86S
LONGVIEW       CLOUDY    61  58  90 SW14      29.87R
PALESTINE      CLOUDY    61  61 100 S8G20     29.88S FOG
NACOGDOCHES    CLOUDY    61  57  88 S9        29.91S
LUFKIN         CLOUDY    65  60  84 S8        29.92R
$$

SUPPLEMENTAL OBSERVATIONS (CENTRAL)

CITY           SKY/WX    TMP DP  RH WIND       PRES   REMARKS
$$

SUPPLEMENTAL OBSERVATIONS (WEST)

CITY           SKY/WX    TMP DP  RH WIND       PRES   REMARKS
$$

SUPPLEMENTAL OBSERVATIONS (EAST)

CITY           SKY/WX    TMP DP  RH WIND       PRES   REMARKS
$$

SUPPLEMENTAL OBSERVATIONS ARE A COLLECTION OF AUTOMATED INSTRUMENTS
THAT ARE MAINTAINED BY A VARIETY OF FEDERAL AND STATE AGENCIES.
CERTAIN ELEMENTS...SUCH AS HUMIDITY VALUES AND SUSTAINED WIND
SPEEDS...MAY BE APPROXIMATED.